Weather History for Marion, OH

Change the Weather History Date:

Friday, January 25, 2013

  Actual Average (KDLZ) Record (KDLZ)
Temperature  
Mean Temperature 18 °F -  
Max Temperature 21 °F 37 °F 63 °F (1967)
Min Temperature 15 °F 17 °F -12 °F (1961)
Degree Days  
Heating Degree Days 47    
Moisture  
Dew Point 12 °F    
Average Humidity 80    
Maximum Humidity 93    
Minimum Humidity 65    
Precipitation  
Precipitation 0.03 in - - ()
Sea Level Pressure  
Sea Level Pressure 30.15 in    
Wind  
Wind Speed 8 mph (South)    
Max Wind Speed 14 mph    
Max Gust Speed -    
Visibility 6 miles    
Events Fog , Snow    
Averages and records for this station are not official NWS values.
T = Trace of Precipitation, MM = Missing Value Source: NWS Daily Summary

Daily Weather History Graph

Daily Weather History Graph

Search for Another Location

Airport:

Trip Planner

Search our weather history database for the weather conditions in past years. The results will help you decide how hot, cold, wet, or windy it might be!

Date:

Astronomy

Jan. 25, 2013 Rise Set
Actual Time 7:47 AM EST 5:41 PM EST
Civil Twilight 7:18 AM EST 6:11 PM EST
Nautical Twilight 6:45 AM EST 6:44 PM EST
Astronomical Twilight 6:13 AM EST 7:16 PM EST
Moon 4:38 PM EST (1/25) 6:26 AM EST (1/25)
Length of Visible Light 10h 52m
Length of Day
9h 54m
Waxing Gibbous, 98% of the Moon is Illuminated
Jan 25
Waxing Gibbous
Jan 26
Full
Feb 3
Last Quarter
Feb 10
New
Feb 17
First Quarter

Hourly Weather History & Observations

Time (EST) Temp. Windchill Dew Point Humidity Pressure Visibility Wind Dir Wind Speed Gust Speed Precip Events Conditions
12:53 AM 15.1 °F 5.2 °F 7.0 °F 70% 30.49 in 10.0 mi SE 6.9 mph - N/A   Mostly Cloudy
1:53 AM 15.1 °F 5.2 °F 6.1 °F 68% 30.47 in 10.0 mi SE 6.9 mph - N/A   Overcast
2:53 AM 16.0 °F 7.4 °F 7.0 °F 68% 30.47 in 10.0 mi SE 5.8 mph - N/A   Overcast
3:53 AM 16.0 °F 5.3 °F 7.0 °F 68% 30.43 in 10.0 mi SE 8.1 mph - N/A   Overcast
4:53 AM 16.0 °F 3.6 °F 6.1 °F 65% 30.38 in 10.0 mi SE 10.4 mph - N/A   Overcast
5:53 AM 16.0 °F 3.6 °F 6.1 °F 65% 30.32 in 10.0 mi SE 10.4 mph - N/A   Overcast
6:53 AM 16.0 °F 4.4 °F 6.1 °F 65% 30.30 in 10.0 mi SSE 9.2 mph - N/A   Overcast
7:53 AM 16.0 °F 3.6 °F 7.0 °F 68% 30.27 in 10.0 mi SSE 10.4 mph - N/A   Overcast
8:16 AM 15.8 °F 2.7 °F 8.6 °F 73% 30.20 in 1.8 mi SSE 11.5 mph - 0.00 in Snow Light Snow
8:21 AM 15.8 °F 2.1 °F 8.6 °F 73% 30.20 in 1.0 mi SSE 12.7 mph - 0.00 in Snow Light Snow
8:33 AM 15.8 °F 1.4 °F 10.4 °F 79% 30.19 in 1.2 mi SSE 13.8 mph - 0.00 in Snow Light Snow
8:41 AM 15.8 °F 3.4 °F 10.4 °F 79% 30.18 in 1.0 mi SE 10.4 mph - 0.00 in Snow Light Snow
8:48 AM 15.8 °F 2.1 °F 10.4 °F 79% 30.17 in 0.8 mi SE 12.7 mph - 0.00 in Snow Light Snow
8:53 AM 15.1 °F 2.5 °F 10.9 °F 84% 30.24 in 0.5 mi SE 10.4 mph - 0.00 in Fog , Snow Snow
9:01 AM 15.8 °F 4.2 °F 10.4 °F 79% 30.17 in 0.5 mi SE 9.2 mph - 0.00 in Fog , Snow Snow
9:20 AM 15.8 °F 5.1 °F 12.2 °F 86% 30.16 in 0.2 mi SE 8.1 mph - 0.00 in Fog , Snow Snow
9:46 AM 15.8 °F 3.4 °F 12.2 °F 86% 30.16 in 0.5 mi SSE 10.4 mph - 0.01 in Fog , Snow Snow
9:53 AM 15.1 °F 4.2 °F 12.0 °F 88% 30.22 in 0.5 mi SSE 8.1 mph - 0.01 in Fog , Snow Snow
10:53 AM 16.0 °F 5.3 °F 12.0 °F 84% 30.20 in 0.8 mi SSE 8.1 mph - 0.02 in Snow Light Snow
11:47 AM 15.8 °F 5.1 °F 12.2 °F 86% 30.11 in 1.2 mi SSE 8.1 mph - 0.00 in Snow Light Snow
11:53 AM 16.0 °F 5.3 °F 12.9 °F 88% 30.17 in 1.5 mi SE 8.1 mph - 0.00 in Snow Light Snow
12:06 PM 17.6 °F 7.3 °F 12.2 °F 79% 30.09 in 0.8 mi SSE 8.1 mph - 0.00 in Snow Light Snow
12:36 PM 17.6 °F 6.4 °F 12.2 °F 79% 30.07 in 1.2 mi SSE 9.2 mph - 0.00 in Snow Light Snow
12:42 PM 17.6 °F 7.3 °F 12.2 °F 79% 30.06 in 3.0 mi SSE 8.1 mph - 0.00 in Snow Light Snow
12:53 PM 17.1 °F 6.6 °F 12.9 °F 84% 30.13 in 4.0 mi SSE 8.1 mph - 0.00 in Snow Light Snow
1:03 PM 17.6 °F 6.4 °F 12.2 °F 79% 30.05 in 2.5 mi SSE 9.2 mph - 0.00 in Snow Light Snow
1:10 PM 17.6 °F 7.3 °F 12.2 °F 79% 30.05 in 4.0 mi SSE 8.1 mph - 0.00 in Snow Light Snow
1:43 PM 19.4 °F 9.5 °F 14.0 °F 80% 30.04 in 6.0 mi South 8.1 mph - 0.00 in Snow Light Snow
1:53 PM 18.0 °F 8.7 °F 12.9 °F 81% 30.11 in 4.0 mi South 6.9 mph - 0.00 in Snow Light Snow
2:17 PM 19.4 °F 10.4 °F 14.0 °F 80% 30.03 in 10.0 mi South 6.9 mph - 0.00 in   Overcast
2:53 PM 19.0 °F 10.0 °F 14.0 °F 81% 30.07 in 10.0 mi South 6.9 mph - 0.00 in   Overcast
3:53 PM 19.0 °F 10.0 °F 14.0 °F 81% 30.06 in 10.0 mi SSW 6.9 mph - N/A   Overcast
4:00 PM 19.4 °F 11.5 °F 14.0 °F 80% 30.00 in 10.0 mi SSW 5.8 mph - N/A   Overcast
4:53 PM 19.9 °F 11.1 °F 14.0 °F 78% 30.07 in 10.0 mi SSW 6.9 mph - N/A   Overcast
5:10 PM 19.4 °F 10.4 °F 14.0 °F 80% 30.02 in 10.0 mi SW 6.9 mph - N/A   Overcast
5:34 PM 19.4 °F 10.4 °F 12.2 °F 74% 30.03 in 10.0 mi WSW 6.9 mph - N/A   Overcast
5:53 PM 19.9 °F 11.1 °F 14.0 °F 78% 30.08 in 10.0 mi WSW 6.9 mph - N/A   Overcast
6:15 PM 19.4 °F 11.5 °F 14.0 °F 80% 30.01 in 10.0 mi SW 5.8 mph - N/A   Overcast
6:53 PM 19.0 °F 11.1 °F 14.0 °F 81% 30.08 in 10.0 mi SSW 5.8 mph - N/A   Overcast
7:53 PM 19.9 °F 12.1 °F 14.0 °F 78% 30.08 in 10.0 mi SW 5.8 mph - N/A   Overcast
8:27 PM 19.4 °F 12.8 °F 15.8 °F 86% 30.04 in 10.0 mi SW 4.6 mph - N/A   Overcast
8:53 PM 19.9 °F 11.1 °F 15.1 °F 81% 30.12 in 9.0 mi WSW 6.9 mph - N/A   Overcast
9:53 PM 19.9 °F 11.1 °F 18.0 °F 92% 30.12 in 3.0 mi WSW 6.9 mph - 0.00 in Snow Light Snow
10:00 PM 19.4 °F 11.5 °F 17.6 °F 93% 30.06 in 3.0 mi WSW 5.8 mph - 0.00 in Snow Light Snow
10:17 PM 21.2 °F 11.7 °F 17.6 °F 86% 30.06 in 3.0 mi SW 8.1 mph - 0.00 in Snow Light Snow
10:49 PM 21.2 °F 11.7 °F 17.6 °F 86% 30.06 in 2.5 mi WSW 8.1 mph - 0.00 in Snow Light Snow
10:53 PM 21.0 °F 12.4 °F 18.0 °F 88% 30.11 in 3.0 mi SW 6.9 mph - 0.00 in Snow Light Snow
11:40 PM 21.2 °F 11.7 °F 17.6 °F 86% 30.06 in 6.0 mi SW 8.1 mph - 0.00 in   Overcast
11:53 PM 21.0 °F 11.4 °F 18.0 °F 88% 30.12 in 6.0 mi SSW 8.1 mph - 0.00 in   Overcast